, NM

(GMT )
Holloman AFB

Weather History for KHMN - February, 2014

Change the Weather History Date:

Friday, February 7, 2014

  Actual Average Record
Temperature  
Mean Temperature 44 °F -  
Max Temperature 55 °F 55 °F 76 °F (2009)
Min Temperature 32 °F 27 °F 19 °F (2004)
Degree Days  
Heating Degree Days 22    
Moisture  
Dew Point 20 °F    
Average Humidity 44    
Maximum Humidity 55    
Minimum Humidity 30    
Precipitation  
Precipitation 0.00 in - - ()
Sea Level Pressure  
Sea Level Pressure 30.02 in    
Wind  
Wind Speed 4 mph (SSE)    
Max Wind Speed 9 mph    
Max Gust Speed -    
Visibility 10 miles    
Events Rain    
Averages and records for this station are not official NWS values.
T = Trace of Precipitation, MM = Missing Value Source: NWS Daily Summary

Daily Weather History Graph

Daily Weather History Graph

Search for Another Location

Airport or City:

Trip Planner

Search our weather history database for the weather conditions in past years. The results will help you decide how hot, cold, wet, or windy it might be!

Date:

Astronomy

Feb. 07, 2014 Rise Set
Actual Time 6:54 AM MST 5:42 PM MST
Civil Twilight 6:29 AM MST 6:08 PM MST
Nautical Twilight 6:00 AM MST 6:37 PM MST
Astronomical Twilight 5:31 AM MST 7:06 PM MST
Moon 11:59 AM MST (2/7) 1:10 AM MST (2/7)
Length of Visible Light 11h 39m
Length of Day
10h 47m
First Quarter, 60% of the Moon is Illuminated
Feb 7
First Quarter
Feb 14
Full
Feb 22
Last Quarter
Mar 1
New
Mar 8
First Quarter

Hourly Weather History & Observations

Time (MST) Temp. Windchill Dew Point Humidity Pressure Visibility Wind Dir Wind Speed Gust Speed Precip Events Conditions
12:58 AM 32.2 °F 25.8 °F 14.7 °F 49% 30.00 in 10.0 mi North 6.9 mph - N/A   Scattered Clouds
1:58 AM 32.7 °F - 15.1 °F 48% 30.01 in 10.0 mi Calm Calm - N/A   Mostly Cloudy
2:31 AM 32.0 °F - 15.8 °F 51% 30.00 in 10.0 mi East 2.3 mph - N/A Rain Light Rain
2:40 AM 32.0 °F - 15.8 °F 51% 30.01 in 10.0 mi Calm Calm - N/A   Clear
2:58 AM 33.1 °F - 16.3 °F 50% 29.99 in 10.0 mi Calm Calm - 0.00 in   Partly Cloudy
3:58 AM 34.2 °F 31.2 °F 17.1 °F 50% 29.97 in 10.0 mi ESE 3.5 mph - N/A   Scattered Clouds
4:58 AM 32.4 °F 29.1 °F 16.5 °F 52% 29.99 in 10.0 mi NNW 3.5 mph - N/A   Mostly Cloudy
5:58 AM 32.4 °F - 16.5 °F 52% 30.01 in 10.0 mi Calm Calm - N/A   Partly Cloudy
6:58 AM 33.1 °F - 17.6 °F 53% 30.03 in 10.0 mi SSW 2.3 mph - N/A   Scattered Clouds
7:55 AM 32.4 °F - 17.6 °F 55% 30.06 in 10.0 mi Calm Calm - N/A   Partly Cloudy
7:58 AM 32.4 °F - 17.6 °F 55% 30.07 in 10.0 mi West 2.3 mph - N/A   Partly Cloudy
8:58 AM 36.3 °F 32.5 °F 19.4 °F 50% 30.09 in 10.0 mi SE 4.6 mph - N/A   Clear
9:15 AM 37.4 °F 32.1 °F 21.2 °F 52% 30.08 in 10.0 mi SSE 6.9 mph - N/A   Partly Cloudy
9:58 AM 41.7 °F 37.3 °F 21.2 °F 44% 30.08 in 10.0 mi South 6.9 mph - N/A   Clear
1:58 PM 53.6 °F - 24.6 °F 33% 29.97 in 10.0 mi SSE 8.1 mph - N/A   Clear
2:58 PM 55.2 °F - 24.3 °F 30% 29.95 in 10.0 mi SE 6.9 mph - N/A   Clear
3:55 PM 55.4 °F - 24.8 °F 31% 30.00 in 10.0 mi East 8.1 mph - N/A   Clear
3:56 PM 55.4 °F - 24.8 °F 31% 29.94 in 10.0 mi Variable 6.9 mph - N/A   Clear
4:58 PM 55.0 °F - 24.3 °F 30% 29.93 in 10.0 mi ESE 6.9 mph - N/A   Clear
5:58 PM 51.8 °F - 23.9 °F 34% 29.97 in 10.0 mi SE 8.1 mph - N/A   Clear
6:58 PM 49.1 °F - 22.8 °F 36% 30.01 in 10.0 mi SW 4.6 mph - N/A   Clear
7:58 PM 48.2 °F - 22.6 °F 37% 30.07 in 10.0 mi SW 9.2 mph - N/A   Clear
8:58 PM 48.0 °F - 23.7 °F 39% 30.08 in 10.0 mi SSW 9.2 mph - N/A   Clear
9:58 PM 46.9 °F - 23.4 °F 40% 30.09 in 10.0 mi SW 5.8 mph - N/A   Clear
10:58 PM 44.8 °F 43.3 °F 22.8 °F 42% 30.03 in 10.0 mi Variable 3.5 mph - N/A   Clear
11:58 PM 45.0 °F - 23.5 °F 43% 30.02 in 10.0 mi Calm Calm - N/A   Clear